Weather History for Wendover, UT

Change the Weather History Date:

Thursday, January 31, 2013

  Actual Average Record
Temperature  
Mean Temperature 34 °F -  
Max Temperature 42 °F 35 °F 60 °F (2003)
Min Temperature 26 °F 18 °F -13 °F (1980)
Degree Days  
Heating Degree Days 31    
Moisture  
Dew Point 27 °F    
Average Humidity 75    
Maximum Humidity 100    
Minimum Humidity 57    
Precipitation  
Precipitation 0.00 in - - ()
Sea Level Pressure  
Sea Level Pressure 30.30 in    
Wind  
Wind Speed 7 mph (NE)    
Max Wind Speed 14 mph    
Max Gust Speed -    
Visibility 10 miles    
Events      
Averages and records for this station are not official NWS values.
T = Trace of Precipitation, MM = Missing Value Source: NWS Daily Summary

Daily Weather History Graph

Daily Weather History Graph

Search for Another Location

Airport:

Trip Planner

Search our weather history database for the weather conditions in past years. The results will help you decide how hot, cold, wet, or windy it might be!

Date:

Astronomy

Jan. 31, 2013 Rise Set
Actual Time 7:46 AM MST 5:53 PM MST
Civil Twilight 7:17 AM MST 6:22 PM MST
Nautical Twilight 6:44 AM MST 6:54 PM MST
Astronomical Twilight 6:12 AM MST 7:26 PM MST
Moon 11:01 PM MST (1/31) 9:46 AM MST (1/31)
Length of Visible Light 11h 04m
Length of Day
10h 06m
Waning Gibbous, 79% of the Moon is Illuminated
Jan 31
Waning Gibbous
Feb 3
Last Quarter
Feb 10
New
Feb 17
First Quarter
Feb 25
Full

Hourly Weather History & Observations

Time (MST) Temp. Windchill Dew Point Humidity Pressure Visibility Wind Dir Wind Speed Gust Speed Precip Events Conditions
12:15 AM 35.6 °F 31.7 °F 26.6 °F 70% 30.26 in 10.0 mi WNW 4.6 mph - N/A   Overcast
12:35 AM 39.2 °F 31.2 °F 28.4 °F 65% 30.27 in 10.0 mi NW 13.8 mph - N/A   Scattered Clouds
12:55 AM 39.2 °F 31.6 °F 26.6 °F 61% 30.27 in 10.0 mi WNW 12.7 mph - N/A   Clear
1:15 AM 39.2 °F 31.6 °F 28.4 °F 65% 30.28 in 10.0 mi NNW 12.7 mph - N/A   Clear
1:35 AM 39.2 °F 32.0 °F 26.6 °F 61% 30.28 in 10.0 mi NW 11.5 mph - N/A   Clear
1:55 AM 39.2 °F 31.2 °F 28.4 °F 65% 30.28 in 10.0 mi NNW 13.8 mph - N/A   Clear
2:15 AM 39.2 °F 34.2 °F 26.6 °F 61% 30.28 in 10.0 mi NW 6.9 mph - N/A   Clear
2:35 AM 37.4 °F 32.1 °F 28.4 °F 70% 30.29 in 10.0 mi WNW 6.9 mph - N/A   Clear
2:55 AM 41.0 °F 37.1 °F 28.4 °F 61% 30.29 in 10.0 mi NW 5.8 mph - N/A   Clear
3:15 AM 37.4 °F 31.4 °F 26.6 °F 65% 30.29 in 10.0 mi NNW 8.1 mph - N/A   Clear
3:35 AM 35.6 °F 28.6 °F 26.6 °F 70% 30.28 in 10.0 mi NW 9.2 mph - N/A   Clear
3:55 AM 37.4 °F 32.1 °F 26.6 °F 65% 30.28 in 10.0 mi WSW 6.9 mph - N/A   Clear
4:15 AM 39.2 °F 35.9 °F 26.6 °F 61% 30.28 in 10.0 mi WSW 4.6 mph - N/A   Clear
4:35 AM 33.8 °F 27.7 °F 24.8 °F 70% 30.29 in 10.0 mi WSW 6.9 mph - N/A   Clear
4:55 AM 35.6 °F 30.7 °F 26.6 °F 70% 30.29 in 10.0 mi West 5.8 mph - N/A   Clear
5:35 AM 33.8 °F - 24.8 °F 70% 30.30 in 10.0 mi Calm Calm - N/A   Clear
5:55 AM 33.8 °F 27.7 °F 26.6 °F 75% 30.30 in 10.0 mi South 6.9 mph - N/A   Clear
6:15 AM 33.8 °F 27.7 °F 24.8 °F 70% 30.30 in 10.0 mi WSW 6.9 mph - N/A   Clear
6:35 AM 30.2 °F 22.6 °F 24.8 °F 80% 30.31 in 10.0 mi WNW 8.1 mph - N/A   Clear
6:55 AM 30.2 °F 23.4 °F 24.8 °F 80% 30.31 in 10.0 mi WNW 6.9 mph - N/A   Clear
7:15 AM 33.8 °F 27.7 °F 26.6 °F 75% 30.31 in 10.0 mi NNW 6.9 mph - N/A   Clear
7:35 AM 30.2 °F 23.4 °F 23.0 °F 75% 30.31 in 10.0 mi SSW 6.9 mph - N/A   Clear
7:55 AM 28.4 °F 22.2 °F 24.8 °F 86% 30.31 in 10.0 mi SW 5.8 mph - N/A   Clear
8:15 AM 26.6 °F 21.2 °F 23.0 °F 86% 30.32 in 10.0 mi WSW 4.6 mph - N/A   Clear
8:35 AM 28.4 °F 24.6 °F 24.8 °F 86% 30.33 in 10.0 mi North 3.5 mph - N/A   Clear
8:55 AM 30.2 °F - 24.8 °F 80% 30.33 in 10.0 mi Calm Calm - N/A   Clear
9:15 AM 30.2 °F 26.7 °F 23.0 °F 75% 30.34 in 10.0 mi East 3.5 mph - N/A   Clear
9:35 AM 30.2 °F 25.4 °F 24.8 °F 80% 30.34 in 10.0 mi SE 4.6 mph - N/A   Clear
9:55 AM 32.0 °F 25.6 °F 24.8 °F 75% 30.35 in 10.0 mi ENE 6.9 mph - N/A   Clear
10:15 AM 33.8 °F 27.7 °F 26.6 °F 75% 30.34 in 10.0 mi ENE 6.9 mph - N/A   Clear
10:35 AM 32.0 °F 24.2 °F 24.8 °F 75% 30.35 in 10.0 mi ENE 9.2 mph - N/A   Clear
10:55 AM 33.8 °F 27.0 °F 26.6 °F 75% 30.34 in 10.0 mi East 8.1 mph - N/A   Clear
11:15 AM 33.8 °F 27.7 °F 26.6 °F 75% 30.35 in 10.0 mi ESE 6.9 mph - N/A   Clear
11:35 AM 33.8 °F 27.7 °F 26.6 °F 75% 30.35 in 10.0 mi NE 6.9 mph - N/A   Clear
11:55 AM 33.8 °F 27.7 °F 26.6 °F 75% 30.34 in 10.0 mi NE 6.9 mph - N/A   Clear
12:35 PM 37.4 °F 32.8 °F 30.2 °F 75% 30.33 in 10.0 mi East 5.8 mph - N/A   Clear
12:55 PM 37.4 °F 32.1 °F 30.2 °F 75% 30.33 in 10.0 mi East 6.9 mph - N/A   Clear
1:15 PM 37.4 °F 33.8 °F 30.2 °F 75% 30.32 in 10.0 mi East 4.6 mph - N/A   Clear
1:35 PM 39.2 °F 37.0 °F 28.4 °F 65% 30.31 in 10.0 mi East 3.5 mph - N/A   Clear
1:55 PM 39.2 °F 34.2 °F 28.4 °F 65% 30.31 in 10.0 mi East 6.9 mph - N/A   Clear
2:15 PM 41.0 °F 37.1 °F 32.0 °F 70% 30.31 in 10.0 mi East 5.8 mph - N/A   Clear
2:35 PM 41.0 °F 38.0 °F 30.2 °F 65% 30.30 in 10.0 mi ESE 4.6 mph - N/A   Clear
3:15 PM 42.8 °F 39.3 °F 30.2 °F 61% 30.30 in 10.0 mi ESE 5.8 mph - N/A   Clear
3:35 PM 42.8 °F 41.1 °F 28.4 °F 57% 30.30 in 10.0 mi ESE 3.5 mph - N/A   Clear
3:55 PM 42.8 °F - 30.2 °F 61% 30.29 in 10.0 mi Calm Calm - N/A   Clear
4:15 PM 42.8 °F 39.3 °F 30.2 °F 61% 30.29 in 10.0 mi East 5.8 mph - N/A   Clear
4:35 PM 41.0 °F 38.0 °F 30.2 °F 65% 30.29 in 10.0 mi East 4.6 mph - N/A   Clear
5:15 PM 37.4 °F 32.8 °F 28.4 °F 70% 30.29 in 10.0 mi East 5.8 mph - N/A   Clear
5:35 PM 37.4 °F 32.8 °F 30.2 °F 75% 30.29 in 10.0 mi East 5.8 mph - N/A   Clear
6:15 PM 35.6 °F 29.9 °F 30.2 °F 81% 30.28 in 10.0 mi ESE 6.9 mph - N/A   Clear
6:35 PM 33.8 °F 30.8 °F 30.2 °F 87% 30.28 in 10.0 mi NE 3.5 mph - N/A   Clear
6:55 PM 33.8 °F - 30.2 °F 87% 30.29 in 10.0 mi Calm Calm - N/A   Clear
7:35 PM 32.0 °F 27.5 °F 28.4 °F 87% 30.29 in 10.0 mi ENE 4.6 mph - N/A   Clear
8:15 PM 32.0 °F 27.5 °F 28.4 °F 87% 30.29 in 10.0 mi NE 4.6 mph - N/A   Clear
8:35 PM 32.0 °F 28.7 °F 30.2 °F 93% 30.29 in 10.0 mi NE 3.5 mph - N/A   Clear
9:15 PM 30.2 °F 24.3 °F 28.4 °F 93% 30.27 in 10.0 mi NE 5.8 mph - N/A   Clear
9:35 PM 28.4 °F 24.6 °F 26.6 °F 93% 30.28 in 10.0 mi ENE 3.5 mph - N/A   Clear
9:55 PM 28.4 °F 24.6 °F 28.4 °F 100% 30.28 in 10.0 mi NE 3.5 mph - N/A   Clear
10:15 PM 30.2 °F - 28.4 °F 93% 30.28 in 10.0 mi Calm Calm - N/A   Clear
10:35 PM 28.4 °F - 26.6 °F 93% 30.28 in 10.0 mi Calm Calm - N/A   Clear
11:15 PM 28.4 °F - 28.4 °F 100% 30.27 in 10.0 mi Calm Calm - N/A   Clear
11:35 PM 28.4 °F - 28.4 °F 100% 30.27 in 10.0 mi Calm Calm - N/A   Clear